Location: Rostock
(54.0884°N, 12.1234°E)
Time: 02:45:12
(UTC+01:00)

ISS - Pass Details

Date: 12 January 2018
Orbit: 402 x 407 km, 51.6° (Epoch: 23 January)

Event Time Altitude Azimuth Distance (km) Brightness Sun altitude
Exits shadow 06:23:27 20° 217° (SW) 1,016 -2.0 -16.9°
Maximum altitude 06:23:40 20° 211° (SSW) 1,011 -2.0 -16.8°
Drops below altitude 10° 06:26:09 10° 162° (SSE) 1,464 -0.6 -16.5°
Sets 06:28:34 0° 144° (SE) 2,322 0.9 -16.1°
